Time,TemperatureF,DewpointF,PressureIn,WindDirection,WindDirectionDegrees,WindSpeedMPH,WindSpeedGustMPH,Humidity,HourlyPrecipIn,Conditions,Clouds,dailyrainin,SoftwareType,DateUTC
2013-02-12 00:01:00,38.0,29.0,-100.00,East,96,5.0,12.0,69,-99.99,,,-99.99,,2013-02-12 08:01:00,
2013-02-12 00:11:00,38.0,29.0,-100.00,East,96,5.0,12.0,69,-99.99,,,-99.99,,2013-02-12 08:11:00,
2013-02-12 01:01:00,38.0,29.0,-100.00,East,97,5.0,15.0,69,-99.99,,,-99.99,,2013-02-12 09:01:00,
2013-02-12 01:10:00,39.0,27.0,-100.00,East,85,5.0,14.0,61,-99.99,,,-99.99,,2013-02-12 09:10:00,
2013-02-12 02:01:00,39.0,27.0,-100.00,East,85,5.0,14.0,61,-99.99,,,-99.99,,2013-02-12 10:01:00,
2013-02-12 03:01:00,38.0,28.0,-100.00,ENE,76,2.0,13.0,66,-99.99,,,-99.99,,2013-02-12 11:01:00,
2013-02-12 03:11:00,38.0,28.0,-100.00,ENE,76,2.0,13.0,66,-99.99,,,-99.99,,2013-02-12 11:11:00,
2013-02-12 04:00:00,40.0,24.0,-100.00,East,92,3.0,15.0,52,-99.99,,,-99.99,,2013-02-12 12:00:00,
2013-02-12 06:01:00,40.0,26.0,-100.00,ESE,114,6.0,20.0,57,-99.99,,,-99.99,,2013-02-12 14:01:00,
2013-02-12 06:11:00,40.0,26.0,-100.00,ESE,114,6.0,20.0,57,-99.99,,,-99.99,,2013-02-12 14:11:00,
2013-02-12 07:01:00,39.0,28.0,-100.00,ESE,113,6.0,17.0,64,-99.99,,,-99.99,,2013-02-12 15:01:00,
2013-02-12 07:11:00,39.0,28.0,-100.00,ESE,113,6.0,17.0,64,-99.99,,,-99.99,,2013-02-12 15:11:00,
2013-02-12 08:01:00,38.0,29.0,-100.00,ESE,107,5.0,15.0,69,-99.99,,,-99.99,,2013-02-12 16:01:00,
2013-02-12 09:01:00,39.0,29.0,-100.00,ESE,104,6.0,18.0,67,-99.99,,,-99.99,,2013-02-12 17:01:00,
2013-02-12 09:11:00,39.0,29.0,-100.00,ESE,104,6.0,18.0,67,-99.99,,,-99.99,,2013-02-12 17:11:00,
2013-02-12 10:01:00,39.0,28.0,-100.00,East,92,3.0,7.0,64,-99.99,,,-99.99,,2013-02-12 18:01:00,
2013-02-12 11:02:00,42.0,28.0,-100.00,ESE,110,5.0,12.0,57,-99.99,,,-99.99,,2013-02-12 19:02:00,
2013-02-12 11:11:00,42.0,28.0,-100.00,ESE,110,5.0,12.0,57,-99.99,,,-99.99,,2013-02-12 19:11:00,
2013-02-12 12:01:00,45.0,27.0,-100.00,SE,133,9.0,21.0,49,-99.99,,,-99.99,,2013-02-12 20:01:00,
2013-02-12 13:01:00,45.0,29.0,-100.00,ESE,110,6.0,17.0,53,-99.99,,,-99.99,,2013-02-12 21:01:00,
2013-02-12 13:11:00,45.0,29.0,-100.00,ESE,110,6.0,17.0,53,-99.99,,,-99.99,,2013-02-12 21:11:00,
2013-02-12 14:01:00,46.0,31.0,-100.00,ESE,107,6.0,13.0,55,-99.99,,,-99.99,,2013-02-12 22:01:00,
2013-02-12 15:01:00,45.0,31.0,-100.00,ESE,112,5.0,13.0,57,-99.99,,,-99.99,,2013-02-12 23:01:00,
2013-02-12 15:11:00,45.0,31.0,-100.00,ESE,112,5.0,13.0,57,-99.99,,,-99.99,,2013-02-12 23:11:00,
2013-02-12 16:02:00,44.0,32.0,-100.00,East,86,3.0,9.0,62,-99.99,,,-99.99,,2013-02-13 00:02:00,
2013-02-12 16:10:00,43.0,32.0,-100.00,ENE,73,2.0,6.0,64,-99.99,,,-99.99,,2013-02-13 00:10:00,
2013-02-12 17:00:00,42.0,32.0,-100.00,East,79,2.0,7.0,67,-99.99,,,-99.99,,2013-02-13 01:00:00,
2013-02-12 17:01:00,43.0,32.0,-100.00,ENE,73,2.0,6.0,64,-99.99,,,-99.99,,2013-02-13 01:01:00,
2013-02-12 18:10:00,42.0,33.0,-100.00,East,97,5.0,13.0,70,-99.99,,,-99.99,,2013-02-13 02:10:00,
2013-02-12 19:00:00,41.0,33.0,-100.00,ESE,104,5.0,17.0,72,-99.99,,,-99.99,,2013-02-13 03:00:00,
2013-02-12 19:01:00,42.0,33.0,-100.00,East,97,5.0,13.0,70,-99.99,,,-99.99,,2013-02-13 03:01:00,
2013-02-12 20:10:00,42.0,33.0,-100.00,ESE,114,6.0,15.0,70,-99.99,,,-99.99,,2013-02-13 04:10:00,
2013-02-12 21:01:00,42.0,33.0,-100.00,ESE,114,6.0,15.0,70,-99.99,,,-99.99,,2013-02-13 05:01:00,
2013-02-12 22:02:00,42.0,33.0,-100.00,East,99,6.0,20.0,70,-99.99,,,-99.99,,2013-02-13 06:02:00,
2013-02-12 22:11:00,42.0,33.0,-100.00,East,99,6.0,20.0,70,-99.99,,,-99.99,,2013-02-13 06:11:00,
2013-02-12 23:02:00,43.0,34.0,-100.00,ESE,112,7.0,23.0,70,-99.99,,,-99.99,,2013-02-13 07:02:00,